Alturas, CA

6:17 PM PST on January 17, 2018 (GMT -0800)
Alturas Municipal

Weather History for KAAT - January, 2014

Change the Weather History Date:

Saturday, January 11, 2014

  Actual Average Record
Temperature  
Mean Temperature 37 °F 29 °F  
Max Temperature 47 °F 41 °F 60 °F (1986)
Min Temperature 26 °F 18 °F -20 °F (1968)
Degree Days  
Heating Degree Days 28 36  
Month to date heating degree days 347 396  
Since 1 July heating degree days 3364 3306  
Cooling Degree Days 0 0  
Month to date cooling degree days 0 0  
Year to date cooling degree days 0 0  
Moisture  
Dew Point 31 °F    
Average Humidity 76    
Maximum Humidity 92    
Minimum Humidity 59    
Precipitation  
Precipitation 0.01 in 0.06 in 0.89 in (1965)
Month to date precipitation 0.02 0.75  
Year to date precipitation 0.02 0.75  
Sea Level Pressure  
Sea Level Pressure 30.00 in    
Wind  
Wind Speed 12 mph (WSW)    
Max Wind Speed 28 mph    
Max Gust Speed 37 mph    
Visibility 10 miles    
Events Rain    
T = Trace of Precipitation, MM = Missing Value Source: NWS Daily Summary

Daily Weather History Graph

Daily Weather History Graph

Search for Another Location

Airport or City:

Trip Planner

Search our weather history database for the weather conditions in past years. The results will help you decide how hot, cold, wet, or windy it might be!

Date:

Astronomy

Jan. 11, 2014 Rise Set
Actual Time 7:27 AM PST 4:53 PM PST
Civil Twilight 6:56 AM PST 5:23 PM PST
Nautical Twilight 6:22 AM PST 5:58 PM PST
Astronomical Twilight 5:49 AM PST 6:31 PM PST
Moon 1:41 PM PST (1/11) 3:36 AM PST (1/11)
Length of Visible Light 10h 27m
Length of Day
9h 25m
Waxing Gibbous, 84% of the Moon is Illuminated
Jan 11
Waxing Gibbous
Jan 15
Full
Jan 23
Last Quarter
Jan 30
New
Feb 6
First Quarter

Hourly Weather History & Observations

Time (PST) Temp. Windchill Dew Point Humidity Pressure Visibility Wind Dir Wind Speed Gust Speed Precip Events Conditions
12:55 AM 33.1 °F 30.0 °F 30.0 °F 89% 30.13 in 10.0 mi ENE 3.5 mph - N/A   Clear
1:55 AM 34.0 °F - 30.0 °F 85% 30.10 in 9.0 mi Calm Calm - N/A   Overcast
2:55 AM 41.0 °F 37.1 °F 32.0 °F 70% 30.06 in 10.0 mi South 5.8 mph - N/A   Mostly Cloudy
3:55 AM 45.0 °F 38.2 °F 33.1 °F 63% 30.01 in 10.0 mi SSE 15.0 mph - N/A   Clear
4:55 AM 44.1 °F 38.6 °F 33.1 °F 65% 29.99 in 10.0 mi SSW 10.4 mph - N/A   Partly Cloudy
5:55 AM 39.0 °F 31.8 °F 30.9 °F 73% 30.01 in 10.0 mi West 11.5 mph - N/A   Overcast
6:55 AM 45.0 °F 36.6 °F 33.1 °F 63% 29.94 in 10.0 mi SSW 21.9 mph 34.5 mph N/A   Partly Cloudy
7:55 AM 45.0 °F 38.9 °F 32.0 °F 60% 29.96 in 10.0 mi WSW 12.7 mph 26.5 mph N/A   Mostly Cloudy
8:09 AM 43.0 °F 35.7 °F 32.0 °F 65% 29.99 in 10.0 mi West 15.0 mph - N/A   Overcast
8:55 AM 39.9 °F 33.9 °F 33.1 °F 77% 30.00 in 10.0 mi WSW 9.2 mph - 0.00 in   Overcast
9:31 AM 42.1 °F 35.7 °F 34.0 °F 73% 29.99 in 10.0 mi SSW 11.5 mph - N/A   Overcast
9:55 AM 42.1 °F 40.2 °F 33.1 °F 70% 30.00 in 10.0 mi Variable 3.5 mph - N/A   Overcast
10:55 AM 42.1 °F 39.2 °F 34.0 °F 73% 29.98 in 10.0 mi South 4.6 mph - N/A   Overcast
11:55 AM 45.0 °F 36.6 °F 35.1 °F 68% 29.96 in 10.0 mi West 21.9 mph - N/A   Overcast
12:09 PM 46.0 °F 39.0 °F 35.1 °F 66% 29.93 in 10.0 mi WSW 17.3 mph 25.3 mph N/A   Scattered Clouds
12:39 PM 44.1 °F 36.2 °F 37.0 °F 76% 29.93 in 10.0 mi WSW 18.4 mph 29.9 mph 0.00 in Rain Light Rain
12:55 PM 42.1 °F 34.2 °F 37.0 °F 82% 29.93 in 10.0 mi West 16.1 mph - 0.00 in   Overcast
1:55 PM 39.0 °F 29.0 °F 35.1 °F 86% 29.95 in 10.0 mi West 20.7 mph - 0.01 in Rain Light Rain
2:55 PM 39.9 °F 30.2 °F 33.1 °F 77% 29.94 in 10.0 mi WSW 20.7 mph 26.5 mph 0.00 in   Overcast
3:02 PM 39.9 °F 30.0 °F 33.1 °F 77% 29.94 in 10.0 mi West 21.9 mph 31.1 mph N/A   Overcast
3:19 PM 39.0 °F 29.3 °F 30.9 °F 73% 29.93 in 10.0 mi WSW 19.6 mph 29.9 mph N/A   Mostly Cloudy
3:55 PM 39.9 °F 29.7 °F 27.0 °F 60% 29.92 in 10.0 mi WSW 23.0 mph 33.4 mph N/A   Clear
4:55 PM 37.9 °F 29.6 °F 27.0 °F 65% 29.96 in 10.0 mi SW 13.8 mph 25.3 mph N/A   Mostly Cloudy
5:42 PM 37.9 °F 28.5 °F 28.0 °F 68% 29.97 in 10.0 mi WSW 17.3 mph 28.8 mph N/A   Overcast
5:55 PM 37.9 °F 27.3 °F 28.0 °F 68% 29.98 in 10.0 mi WSW 21.9 mph 29.9 mph N/A   Overcast
6:29 PM 35.1 °F 25.9 °F 28.9 °F 78% 29.99 in 9.0 mi West 13.8 mph - 0.00 in   Scattered Clouds
6:55 PM 34.0 °F 25.5 °F 28.9 °F 82% 30.01 in 10.0 mi West 11.5 mph - 0.00 in   Clear
7:55 PM 34.0 °F 26.0 °F 28.0 °F 79% 30.04 in 10.0 mi West 10.4 mph - N/A   Scattered Clouds
8:03 PM 33.1 °F 24.9 °F 28.0 °F 82% 30.04 in 10.0 mi West 10.4 mph - N/A   Mostly Cloudy
8:13 PM 33.1 °F 23.0 °F 27.0 °F 78% 30.03 in 10.0 mi WSW 15.0 mph - N/A   Scattered Clouds
8:55 PM 32.0 °F 25.6 °F 27.0 °F 82% 30.12 in 10.0 mi West 6.9 mph - N/A   Clear
9:55 PM 30.9 °F 20.2 °F 26.1 °F 82% 30.11 in 10.0 mi West 15.0 mph - N/A   Clear
10:55 PM 30.0 °F 24.1 °F 25.0 °F 82% 30.15 in 10.0 mi West 5.8 mph - N/A   Clear
11:55 PM 28.9 °F 23.9 °F 23.0 °F 78% 30.15 in 10.0 mi SSW 4.6 mph - N/A   Clear